Location: *
(42.3442°N, 9.2072°E)
Time: 09:38:07
(UTC+00:00)

STARLINK-1219 - Pass Details

Date: 09 April 2020
Orbit: 548 x 551 km, 53.0° (Epoch: 05 June)

Event Time Altitude Azimuth Distance (km) Brightness Sun altitude
Rises 19:49:25 0° 304° (WNW) 2,724 8.8 -19.8°
Reaches altitude 10° 19:51:41 10° 299° (WNW) 1,826 7.5 -20.2°
Maximum altitude 19:55:44 54° 222° (SW) 668 4.0 -20.8°
Enters shadow 19:56:25 48° 185° (S) 727 4.0 -20.9°
